This is the latest recevied weather packets stored in our database for station/object M0HPP-13. If no packets are shown the sender has not sent any weather packets the latest 10 day(s).
| Time | Temp. | Humidity | Pressure | Rain* | Wind** | Luminosity | Snow |
|---|---|---|---|---|---|---|---|
| 1788643086 | 11.67° C | 85% | 1019 hPa | 0 mm | - | 0 W/m² | - |
| 1788642486 | 11.67° C | 85% | 1019 hPa | 0 mm | - | 0 W/m² | - |
| 1788641886 | 11.67° C | 85% | 1019 hPa | 0 mm | - | 0 W/m² | - |
| 1788641286 | 11.67° C | 85% | 1019.1 hPa | 0 mm | - | 0 W/m² | - |
| 1788640686 | 11.67° C | 86% | 1019.1 hPa | 0 mm | - | 0 W/m² | - |
| 1788640086 | 11.67° C | 86% | 1019.1 hPa | 0 mm | - | 0 W/m² | - |
| 1788639486 | 11.67° C | 87% | 1019.1 hPa | 0 mm | - | 0 W/m² | - |
| 1788638886 | 11.67° C | 86% | 1019.1 hPa | 0 mm | - | 0 W/m² | - |
| 1788638286 | 11.67° C | 86% | 1019.2 hPa | 0 mm | - | 0 W/m² | - |
| 1788637686 | 11.67° C | 86% | 1019.2 hPa | 0 mm | - | 0 W/m² | - |
| 1788637086 | 11.67° C | 86% | 1019.3 hPa | 0 mm | - | 0 W/m² | - |
| 1788634086 | 12.22° C | 83% | 1018.9 hPa | 0 mm | - | 14 W/m² | - |
| 1788633486 | 12.78° C | 82% | 1018.7 hPa | 0 mm | - | 20 W/m² | - |
| 1788632886 | 12.78° C | 81% | 1018.7 hPa | 0 mm | - | 23 W/m² | - |
| 1788632286 | 13.33° C | 80% | 1018.5 hPa | 0 mm | - | 34 W/m² | - |
| 1788631686 | 13.33° C | 78% | 1018.4 hPa | 0 mm | - | 49 W/m² | - |
| 1788631086 | 13.89° C | 76% | 1018.3 hPa | 0 mm | - | 52 W/m² | - |
| 1788630486 | 14.44° C | 74% | 1018.3 hPa | 0 mm | - | 75 W/m² | - |
| 1788629886 | 15° C | 72% | 1018.3 hPa | 0 mm | - | 118 W/m² | - |
| 1788629286 | 15° C | 71% | 1018.2 hPa | 0 mm | - | 132 W/m² | - |
| 1788628686 | 14.44° C | 73% | 1018 hPa | 0 mm | - | 147 W/m² | - |
| 1788628086 | 13.89° C | 73% | 1017.8 hPa | 0 mm | - | 80 W/m² | - |
| 1788627486 | 14.44° C | 72% | 1017.8 hPa | 0 mm | - | 104 W/m² | - |
| 1788626886 | 15° C | 70% | 1017.7 hPa | 0 mm | - | 122 W/m² | - |
| 1788626286 | 15.56° C | 67% | 1017.8 hPa | 0 mm | - | 183 W/m² | - |
* Rain latest hour (hover to see other rain measurements)
** Current wind speed in m/s (hover to see current wind gust speed)